Weather in Polibino

Russia / Lipetsk Oblast     53°30′21″N   38°58′43″E
temp.,
°C
wind,
m/s
gust,
m/s
humid.,
%
clouds,
%
prec.,
mm/h
press.,
hPa
HPBL,
m
14 april, wed
wed1400:00+12se513577 0.0 1023251
03:00+10sse3570100 0.0 102279
06:00+9se3374100 0.0 102231
09:00+12se4955100 0.0 1021284
12:00+17se5736100 0.0 1020739
15:00+19se682547 0.0 10182018
18:00+18sse473259 0.0 1017201
21:00+14se484784 0.0 1018129
15 april, thu
thu1500:00+11se375798 0.0 1017101
03:00+10se365964 0.0 101794
06:00+9se3467100 0.0 101747
09:00+13e345498 0.0 1016218
12:00+17e5644100 0.0 1015801
15:00+18ese4539100 0.0 10141545
18:00+17e354578 0.0 1014146
21:00+13sse3863100 0.0 1015188
16 april, fri
fri1600:00+12e2267100 0.1 101518
03:00+11e347092 0.1 101663
06:00+9ese228177 0.1 101724
09:00+12ene5674100 0.1 1017389
12:00+16e5756100 0.1 10181040
15:00+18ese6847100 0.1 10171636
18:00+16e4757100 3.3 1017296
21:00+12ene478453 8.3 1019218
17 april, sat
sat1700:00+10ene6108995 2.4 1020459
03:00+8ne5109450 3.4 1020319
06:00+7ne6119439 0.0 1021375
09:00+10ene8118043 0.0 1021589
12:00+13ene9116548 0.0 1021873
15:00+15ene91159100 0.0 10211490
18:00+14ene81262100 0.1 10211079
21:00+11ene71366100 0.1 1023762
18 april, sun
sun1800:00+9ene6116783 0.1 1024745
03:00+8ene6116598 0.1 1024428
06:00+7ene51066100 0.0 1025369
09:00+7ene61064100 0.0 1026445
12:00+12ene784597 0.0 10261175
15:00+14ene683751 0.0 10261795
18:00+13ene58425 0.0 1026917
21:00+9ne410595 0.0 1028225